Orbital Elements at Epoch 2459200.5 (2020-Dec-17.0) TDB
Reference: JPL 19 (heliocentric ecliptic J2000)
Element | Value | Uncertainty (1-sigma) | Units |
e | .252349794850483 | 4.752e-08 | |
a | 2.717598843934184 | 1.7507e-08 | au |
q | 2.031813333181483 | 1.3103e-07 | au |
i | 3.486912389328345 | 5.6718e-06 | deg |
node | 354.1157749420732 | 7.8846e-05 | deg |
peri | 344.5498933353168 | 7.9454e-05 | deg |
M | 84.12639246672644 | 1.123e-05 | deg |
tp | 2458818.110273691364 (2019-Nov-30.61027369) | 4.9379e-05 | TDB |
period | 1636.350940943488 4.48 | 1.5813e-05 4.329e-08 | d yr |
n | .220001706841951 | 2.1259e-09 | deg/d |
Q | 3.403384354686885 | 2.1925e-08 | au |
|
| | Orbit Determination Parameters
Additional Information
|